Location: Mahannah Oil Field
(37.4664°N, 96.6003°W)
Time: 03:38:54
(UTC+00:00)

Tiros 1 despin weight - Pass Details

Date: 27 January 2021
Orbit: 593 x 642 km, 48.2° (Epoch: 02 March)

Event Time Altitude Azimuth Distance (km) Brightness Sun altitude
Rises 03:19:46 0° 287° (WNW) 2,834 ? -42.7°
Enters shadow 03:21:26 - 277° (W) 2,311 ? -43.0°
Reaches altitude 10° 03:22:58 10° 263° (W) 1,922 - -43.3°
Maximum altitude 03:25:20 14° 230° (SW) 1,648 - -43.8°
Drops below altitude 10° 03:27:43 10° 197° (SSW) 1,912 - -44.2°
Sets 03:30:54 0° 172° (S) 2,808 - -44.8°
